sat.trackr.live / text

‹ back to catalog

STARLINK-11304 [DTC]

NORAD 61209 · 2024-171K

PAYLOAD ACTIVE UNKNOWN

§ Identity

Operator
Country
US
Launch date
2024-09-20
Launch site
AFWTR
Launch vehicle
Mass (kg)
RCS (m²)

Purposes: comms

External: N2YO · Heavens-Above · Gunter

§ Orbital elements

Epoch: 2026-05-24T18:40:28.324704Z

Period
91.74 min
Inclination
53.1583°
Eccentricity
0.0000621
Mean motion
15.69727442 rev/d
Perigee alt
359.3 km
Apogee alt
360.1 km
Semi-major
6,737.8 km
B*
-2.0613e-5
RAAN
160.8503°
Arg perigee
113.1456°
Mean anomaly
246.9627°
Rev number
9,726

§ Raw data

STARLINK-11304 [DTC]1 61209U 24171K   26144.77810561 -.00003086  00000+0 -20613-4 0  99992 61209  53.1583 160.8503 0000621 113.1456 246.9627 15.69727442 97265

JSON: /api/v1/satellites/61209 · /tle

For live sub-satellite position, see the globe view (requires WebGL).

§ Visibility from observer

Set your observer location to see the next 7 days of passes ≥ 10°. The values pass through the URL so the page stays shareable.

No JS? Fill the form by hand. The geolocation button needs JavaScript.